Weather History for Chicago Lansing, IL

Change the Weather History Date:

Monday, February 18, 2013

  Actual Average (KMDW) Record (KMDW)
Temperature  
Mean Temperature 40 °F 30 °F  
Max Temperature 53 °F 37 °F 62 °F (1961)
Min Temperature 27 °F 23 °F -16 °F (1936)
Degree Days  
Heating Degree Days 25 35  
Month to date heating degree days 678  
Since 1 July heating degree days 4174  
Cooling Degree Days 0 0  
Month to date cooling degree days 0  
Year to date cooling degree days 0  
Moisture  
Dew Point 31 °F    
Average Humidity 69    
Maximum Humidity 93    
Minimum Humidity 53    
Precipitation  
Precipitation 0.27 in 0.07 in 0.84 in (1951)
Month to date precipitation 1.13  
Year to date precipitation 3.19  
Sea Level Pressure  
Sea Level Pressure 29.71 in    
Wind  
Wind Speed 17 mph (South)    
Max Wind Speed 33 mph    
Max Gust Speed 44 mph    
Visibility 9 miles    
Events Rain , Snow    
T = Trace of Precipitation, MM = Missing Value Source: NWS Daily Summary

Daily Weather History Graph

Daily Weather History Graph

Search for Another Location

Airport:

Trip Planner

Search our weather history database for the weather conditions in past years. The results will help you decide how hot, cold, wet, or windy it might be!

Date:

Astronomy

Feb. 18, 2013 Rise Set
Actual Time 6:40 AM CST 5:27 PM CST
Civil Twilight 6:12 AM CST 5:56 PM CST
Nautical Twilight 5:40 AM CST 6:28 PM CST
Astronomical Twilight 5:08 AM CST 7:00 PM CST
Moon 11:11 AM CST (2/18) 1:22 AM CST (2/18)
Length of Visible Light 11h 43m
Length of Day
10h 46m
First Quarter, 58% of the Moon is Illuminated
Feb 18
First Quarter
Feb 25
Full
Mar 4
Last Quarter
Mar 11
New
Mar 19
First Quarter

Hourly Weather History & Observations

Time (CST) Temp. Windchill Dew Point Humidity Pressure Visibility Wind Dir Wind Speed Gust Speed Precip Events Conditions
12:15 AM 27.5 °F 17.4 °F 13.6 °F 56% 30.03 in 10.0 mi SSE 11.5 mph 17.3 mph N/A   Clear
12:35 AM 27.5 °F 17.4 °F 14.0 °F 57% 30.02 in 10.0 mi SSE 11.5 mph - N/A   Clear
12:55 AM 27.5 °F 18.6 °F 14.2 °F 57% 30.01 in 10.0 mi SSE 9.2 mph 17.3 mph N/A   Clear
1:15 AM 28.0 °F 18.1 °F 14.0 °F 56% 30.00 in 10.0 mi SSE 11.5 mph 17.3 mph N/A   Clear
1:35 AM 28.2 °F 17.7 °F 14.4 °F 56% 29.99 in 10.0 mi SSE 12.7 mph 20.7 mph N/A   Clear
1:55 AM 28.4 °F 18.5 °F 14.0 °F 55% 29.98 in 10.0 mi SSE 11.5 mph - N/A   Clear
2:15 AM 28.4 °F 18.0 °F 14.5 °F 56% 29.97 in 10.0 mi SSE 12.7 mph 18.4 mph N/A   Clear
2:35 AM 28.8 °F 19.0 °F 14.7 °F 56% 29.96 in 10.0 mi SSE 11.5 mph - N/A   Clear
2:55 AM 28.9 °F 19.2 °F 15.1 °F 56% 29.95 in 10.0 mi SSE 11.5 mph 18.4 mph N/A   Clear
3:15 AM 29.3 °F 18.2 °F 15.6 °F 57% 29.93 in 10.0 mi SSE 15.0 mph - N/A   Clear
3:35 AM 29.3 °F 18.6 °F 15.8 °F 57% 29.91 in 10.0 mi SSE 13.8 mph 19.6 mph N/A   Clear
3:55 AM 29.7 °F 19.6 °F 16.3 °F 58% 29.90 in 10.0 mi SSE 12.7 mph - N/A   Clear
4:15 AM 29.7 °F 19.1 °F 16.5 °F 58% 29.90 in 10.0 mi SSE 13.8 mph - N/A   Clear
4:35 AM 29.8 °F 19.8 °F 16.7 °F 58% 29.89 in 10.0 mi SSE 12.7 mph - N/A   Clear
4:55 AM 30.2 °F 21.3 °F 17.1 °F 58% 29.88 in 10.0 mi SSE 10.4 mph 17.3 mph N/A   Clear
5:15 AM 30.2 °F 20.8 °F 17.4 °F 59% 29.87 in 10.0 mi SSE 11.5 mph 18.4 mph N/A   Clear
5:35 AM 30.4 °F 21.0 °F 17.4 °F 59% 29.86 in 10.0 mi SSE 11.5 mph 17.3 mph N/A   Clear
5:55 AM 31.1 °F 21.4 °F 17.6 °F 57% 29.85 in 10.0 mi SSE 12.7 mph 21.9 mph N/A   Clear
6:15 AM 31.1 °F 21.4 °F 18.1 °F 59% 29.85 in 10.0 mi SSE 12.7 mph 20.7 mph N/A   Clear
6:35 AM 31.3 °F 21.6 °F 18.5 °F 59% 29.83 in 10.0 mi SSE 12.7 mph 17.3 mph N/A   Clear
6:55 AM 31.8 °F 21.8 °F 19.0 °F 59% 29.83 in 10.0 mi South 13.8 mph 23.0 mph N/A   Clear
7:15 AM 32.0 °F 21.6 °F 19.4 °F 60% 29.82 in 10.0 mi South 15.0 mph 20.7 mph N/A   Clear
7:35 AM 32.4 °F 22.5 °F 20.3 °F 61% 29.82 in 10.0 mi South 13.8 mph - N/A   Clear
7:55 AM 33.8 °F 24.3 °F 21.2 °F 60% 29.81 in 10.0 mi South 13.8 mph - N/A   Clear
8:15 AM 34.9 °F 25.7 °F 22.1 °F 60% 29.80 in 10.0 mi South 13.8 mph 21.9 mph N/A   Clear
8:35 AM 36.9 °F 27.5 °F 23.4 °F 58% 29.80 in 10.0 mi South 16.1 mph 23.0 mph N/A   Clear
8:55 AM 39.2 °F 30.8 °F 25.2 °F 57% 29.79 in 10.0 mi South 15.0 mph 20.7 mph N/A   Clear
9:15 AM 40.3 °F 31.3 °F 26.4 °F 58% 29.78 in 10.0 mi South 18.4 mph - N/A   Clear
9:35 AM 43.2 °F 35.0 °F 28.6 °F 56% 29.77 in 10.0 mi South 18.4 mph 25.3 mph N/A   Clear
9:55 AM 44.6 °F 36.9 °F 30.2 °F 57% 29.76 in 10.0 mi South 18.4 mph - N/A   Clear
10:15 AM 46.4 °F 38.3 °F 30.9 °F 55% 29.76 in 10.0 mi South 23.0 mph 28.8 mph N/A   Clear
10:35 AM 48.2 °F - 32.0 °F 54% 29.75 in 10.0 mi South 18.4 mph 25.3 mph N/A   Clear
10:55 AM 49.8 °F - 33.1 °F 53% 29.74 in 10.0 mi SSW 19.6 mph 27.6 mph N/A   Clear
11:15 AM 51.3 °F - 34.7 °F 53% 29.74 in 10.0 mi SSW 23.0 mph 31.1 mph N/A   Clear
11:35 AM 51.4 °F - 35.4 °F 54% 29.73 in 10.0 mi SSW 23.0 mph 33.4 mph N/A   Clear
11:55 AM 51.8 °F - 35.6 °F 54% 29.72 in 10.0 mi SSW 26.5 mph 33.4 mph N/A   Clear
12:15 PM 51.4 °F - 36.7 °F 57% 29.71 in 10.0 mi SSW 20.7 mph 26.5 mph N/A   Clear
12:35 PM 51.6 °F - 37.4 °F 58% 29.69 in 10.0 mi South 26.5 mph 34.5 mph N/A   Scattered Clouds
12:55 PM 53.1 °F - 38.7 °F 58% 29.68 in 10.0 mi SSW 27.6 mph 33.4 mph N/A   Scattered Clouds
1:15 PM 50.9 °F - 38.8 °F 63% 29.67 in 10.0 mi SSW 19.6 mph 31.1 mph N/A   Mostly Cloudy
1:35 PM 50.5 °F - 39.7 °F 66% 29.66 in 10.0 mi SSW 18.4 mph 24.2 mph N/A   Overcast
1:55 PM 50.9 °F - 40.5 °F 67% 29.65 in 10.0 mi SSW 21.9 mph 27.6 mph N/A   Overcast
2:15 PM 50.9 °F - 41.0 °F 69% 29.64 in 10.0 mi South 19.6 mph 24.2 mph N/A   Overcast
2:35 PM 50.5 °F - 41.5 °F 71% 29.63 in 10.0 mi South 19.6 mph 25.3 mph N/A   Overcast
2:55 PM 49.6 °F - 42.3 °F 76% 29.63 in 10.0 mi SSW 23.0 mph 27.6 mph N/A Rain Rain
3:15 PM 49.5 °F - 43.3 °F 79% 29.61 in 10.0 mi South 19.6 mph 26.5 mph N/A   Overcast
3:35 PM 49.5 °F - 42.8 °F 78% 29.61 in 10.0 mi South 23.0 mph 31.1 mph N/A   Overcast
3:55 PM 49.5 °F - 42.8 °F 78% 29.60 in 10.0 mi South 27.6 mph 35.7 mph N/A   Light Drizzle
4:15 PM 49.1 °F - 42.8 °F 79% 29.59 in 10.0 mi South 27.6 mph 33.4 mph N/A Rain Light Rain
4:35 PM 49.1 °F - 43.0 °F 79% 29.58 in 10.0 mi South 25.3 mph 33.4 mph N/A   Overcast
4:55 PM 49.1 °F - 43.0 °F 79% 29.57 in 10.0 mi South 24.2 mph 41.4 mph N/A   Overcast
5:15 PM 48.2 °F - 43.7 °F 84% 29.56 in 10.0 mi South 31.1 mph 41.4 mph N/A   Overcast
5:35 PM 48.4 °F - 43.2 °F 82% 29.55 in 10.0 mi South 31.1 mph 41.4 mph N/A   Overcast
5:55 PM 47.7 °F - 43.3 °F 85% 29.54 in 10.0 mi South 26.5 mph 34.5 mph N/A   Overcast
6:15 PM 47.1 °F - 43.2 °F 86% 29.53 in 7.0 mi South 31.1 mph 41.4 mph N/A Rain Light Rain
6:35 PM 46.4 °F 37.5 °F 42.8 °F 87% 29.52 in 10.0 mi South 27.6 mph 36.8 mph N/A Rain Light Rain
6:55 PM 46.2 °F 36.5 °F 42.1 °F 85% 29.51 in 10.0 mi South 33.4 mph 42.6 mph N/A   Light Drizzle
7:15 PM 45.7 °F 36.2 °F 42.1 °F 87% 29.50 in 5.0 mi South 29.9 mph 40.3 mph 0.01 in Rain Light Rain
7:35 PM 45.1 °F 35.6 °F 42.1 °F 89% 29.49 in 2.5 mi South 28.8 mph 43.7 mph 0.06 in   Unknown
7:55 PM 44.8 °F 35.2 °F 42.3 °F 91% 29.48 in 3.0 mi South 28.8 mph 35.7 mph 0.14 in   Overcast
8:15 PM 45.0 °F 35.4 °F 42.4 °F 91% 29.46 in 5.0 mi South 28.8 mph 39.1 mph 0.03 in Rain Light Rain
8:35 PM 45.0 °F 36.0 °F 42.3 °F 90% 29.46 in 5.0 mi South 25.3 mph 41.4 mph 0.07 in Rain Rain
8:55 PM 45.0 °F 35.8 °F 42.4 °F 91% 29.44 in 7.0 mi South 26.5 mph 35.7 mph 0.09 in Rain Rain
9:15 PM 45.0 °F 35.8 °F 42.8 °F 92% 29.43 in 5.0 mi South 26.5 mph 36.8 mph 0.01 in Rain Light Rain
9:35 PM 45.0 °F 36.4 °F 42.8 °F 92% 29.43 in 4.0 mi SW 23.0 mph 34.5 mph 0.02 in Rain Light Rain
9:55 PM 44.8 °F 36.2 °F 42.8 °F 93% 29.45 in 7.0 mi SW 23.0 mph 31.1 mph 0.03 in Rain Rain
10:15 PM 39.4 °F 29.5 °F 36.7 °F 90% 29.48 in 7.0 mi West 20.7 mph 29.9 mph N/A Rain Light Rain
10:35 PM 37.0 °F 25.4 °F 34.3 °F 90% 29.50 in 7.0 mi West 25.3 mph 34.5 mph 0.01 in   Overcast
10:55 PM 35.2 °F 23.5 °F 32.5 °F 90% 29.51 in 10.0 mi West 23.0 mph 31.1 mph 0.01 in   Overcast
11:15 PM 34.7 °F 22.8 °F 32.0 °F 90% 29.53 in 10.0 mi West 23.0 mph 31.1 mph N/A   Overcast
11:35 PM 33.4 °F 20.8 °F 31.3 °F 92% 29.54 in 10.0 mi West 24.2 mph 32.2 mph N/A   Overcast
11:55 PM 32.2 °F 18.6 °F 29.7 °F 90% 29.55 in 10.0 mi West 26.5 mph 35.7 mph N/A Snow Light Snow